UAL135 KBOS-KLAX

Flight info

Callsign UAL135
Flight time N/A
Altitude 30000
Route HYLND7 HYLND HANAA Q816 HOCKE GRB/N0459F320 ODI FSD J114 LANDR/N0461F340 J114 DVV J60 HVE PROMT Q88 HAKMN ANJLL4
Aircraft B739/M-SDE2E3FGHIRWXY/LB1

Departure

Time N/A
Airport Boston Logan International Airport (KBOS)

Arrival

Time 2026-04-26 00:30
Airport Los Angeles International Airport (KLAX)
Time Latitude Longitude Altitude Speed Heading
2026-04-25 20:59 44.18243 -86.46986 33747 ft 476 kts 292°
2026-04-25 20:59 44.19231 -86.51386 33750 ft 476 kts 292°
2026-04-25 20:59 44.21205 -86.60197 33746 ft 476 kts 292°
2026-04-25 21:00 44.22840 -86.67524 33752 ft 476 kts 292°
2026-04-25 21:01 44.26106 -86.82236 33748 ft 476 kts 291°
2026-04-25 21:01 44.28057 -86.91071 33747 ft 476 kts 291°
2026-04-25 21:02 44.29990 -86.99865 33752 ft 476 kts 291°
2026-04-25 21:02 44.31930 -87.08726 33751 ft 476 kts 291°
2026-04-25 21:03 44.33863 -87.17589 33744 ft 477 kts 291°
2026-04-25 21:03 44.35787 -87.26452 33749 ft 477 kts 291°
2026-04-25 21:04 44.37707 -87.35334 33750 ft 477 kts 291°
2026-04-25 21:04 44.39609 -87.44167 33749 ft 477 kts 291°
2026-04-25 21:05 44.41518 -87.53071 33751 ft 477 kts 291°
2026-04-25 21:05 44.43417 -87.61968 33747 ft 477 kts 291°
2026-04-25 21:06 44.45310 -87.70878 33752 ft 478 kts 291°
2026-04-25 21:06 44.47198 -87.79797 33750 ft 478 kts 291°
2026-04-25 21:07 44.49068 -87.88674 33750 ft 478 kts 291°
2026-04-25 21:07 44.50943 -87.97613 33752 ft 478 kts 291°
2026-04-25 21:08 44.52812 -88.06555 33749 ft 478 kts 291°
2026-04-25 21:08 44.54539 -88.15561 33740 ft 482 kts 282°
2026-04-25 21:09 44.53821 -88.29703 33757 ft 493 kts 258°
2026-04-25 21:09 44.52054 -88.39011 33741 ft 494 kts 258°
2026-04-25 21:10 44.50276 -88.48313 33749 ft 494 kts 258°
2026-04-25 21:10 44.48540 -88.57624 33747 ft 494 kts 258°
2026-04-25 21:11 44.46824 -88.66934 33746 ft 494 kts 258°
2026-04-25 21:11 44.45102 -88.76255 33753 ft 494 kts 258°
2026-04-25 21:12 44.43383 -88.85503 33744 ft 495 kts 258°
2026-04-25 21:12 44.41924 -88.93306 33749 ft 495 kts 258°
2026-04-25 21:13 44.39890 -89.04128 33749 ft 495 kts 258°
2026-04-25 21:13 44.38131 -89.13435 33742 ft 495 kts 258°
2026-04-25 21:14 44.36365 -89.22738 33751 ft 495 kts 258°
2026-04-25 21:14 44.34600 -89.31988 33750 ft 495 kts 258°
2026-04-25 21:15 44.32817 -89.41285 33741 ft 495 kts 258°
2026-04-25 21:15 44.31026 -89.50582 33747 ft 495 kts 258°
2026-04-25 21:16 44.29228 -89.59874 33751 ft 495 kts 258°
2026-04-25 21:16 44.27422 -89.69159 33751 ft 495 kts 257°
2026-04-25 21:17 44.25609 -89.78437 33751 ft 495 kts 257°
2026-04-25 21:17 44.23799 -89.87652 33749 ft 495 kts 257°
2026-04-25 21:18 44.21972 -89.96913 33748 ft 495 kts 257°
2026-04-25 21:18 44.20136 -90.06174 33751 ft 495 kts 257°
2026-04-25 21:19 44.18303 -90.15379 33744 ft 495 kts 257°
2026-04-25 21:19 44.16453 -90.24627 33749 ft 495 kts 257°
2026-04-25 21:20 44.15210 -90.30817 33748 ft 495 kts 257°
2026-04-25 21:20 44.12731 -90.43101 33746 ft 495 kts 257°
2026-04-25 21:21 44.10861 -90.52320 33748 ft 495 kts 257°
2026-04-25 21:21 44.08982 -90.61538 33747 ft 495 kts 257°
2026-04-25 21:22 44.07096 -90.70753 33750 ft 495 kts 257°
2026-04-25 21:22 44.05214 -90.79902 33744 ft 495 kts 257°
2026-04-25 21:23 44.03309 -90.89122 33751 ft 496 kts 257°
2026-04-25 21:23 44.01398 -90.98330 33747 ft 496 kts 257°
2026-04-25 21:24 43.99478 -91.07540 33747 ft 496 kts 256°
2026-04-25 21:24 43.97547 -91.16765 33745 ft 496 kts 256°
2026-04-25 21:25 43.95625 -91.25906 33749 ft 496 kts 256°
2026-04-25 21:25 43.93685 -91.35092 33742 ft 496 kts 256°
2026-04-25 21:26 43.91748 -91.44273 33748 ft 495 kts 258°
2026-04-25 21:26 43.90867 -91.53629 33764 ft 487 kts 272°
2026-04-25 21:27 43.90678 -91.63031 33750 ft 487 kts 272°
2026-04-25 21:27 43.90479 -91.72433 33755 ft 488 kts 272°
2026-04-25 21:28 43.90231 -91.81789 33747 ft 489 kts 271°
2026-04-25 21:28 43.89952 -91.91221 33749 ft 489 kts 271°
2026-04-25 21:29 43.89661 -92.00649 33751 ft 490 kts 271°
2026-04-25 21:29 43.89364 -92.10086 33749 ft 490 kts 271°
2026-04-25 21:30 43.89060 -92.19538 33749 ft 490 kts 271°
2026-04-25 21:30 43.88802 -92.27387 33745 ft 490 kts 271°
2026-04-25 21:31 43.88430 -92.38435 33743 ft 491 kts 271°
2026-04-25 21:31 43.88103 -92.47895 33750 ft 491 kts 271°
2026-04-25 21:32 43.87770 -92.57292 33748 ft 491 kts 271°
2026-04-25 21:32 43.87427 -92.66741 33752 ft 491 kts 271°
2026-04-25 21:33 43.87076 -92.76194 33742 ft 491 kts 270°
2026-04-25 21:33 43.86718 -92.85655 33737 ft 491 kts 270°
2026-04-25 21:34 43.86414 -92.93509 33750 ft 490 kts 270°
2026-04-25 21:34 43.86042 -93.02955 33750 ft 490 kts 270°
2026-04-25 21:35 43.85661 -93.12400 33746 ft 490 kts 270°
2026-04-25 21:35 43.85274 -93.21823 33747 ft 490 kts 270°
2026-04-25 21:36 43.84879 -93.31251 33750 ft 490 kts 270°
2026-04-25 21:36 43.84479 -93.40615 33749 ft 490 kts 270°
2026-04-25 21:37 43.84135 -93.48513 33750 ft 490 kts 270°
2026-04-25 21:37 43.83650 -93.59473 33746 ft 490 kts 270°
2026-04-25 21:38 43.83224 -93.68889 33750 ft 490 kts 270°
2026-04-25 21:38 43.82791 -93.78298 33750 ft 490 kts 270°
2026-04-25 21:39 43.82352 -93.87661 33750 ft 490 kts 270°
2026-04-25 21:39 43.81902 -93.97082 33750 ft 490 kts 270°
2026-04-25 21:40 43.81445 -94.06511 33749 ft 490 kts 270°
2026-04-25 21:40 43.80980 -94.15923 33750 ft 490 kts 270°
2026-04-25 21:41 43.80507 -94.25347 33751 ft 490 kts 269°
2026-04-25 21:41 43.80027 -94.34774 33749 ft 490 kts 269°
2026-04-25 21:42 43.79541 -94.44135 33750 ft 491 kts 269°
2026-04-25 21:42 43.79045 -94.53555 33750 ft 491 kts 269°
2026-04-25 21:43 43.78541 -94.62976 33746 ft 491 kts 269°
2026-04-25 21:43 43.78029 -94.72405 33748 ft 491 kts 269°
2026-04-25 21:44 43.77509 -94.81830 33750 ft 491 kts 269°
2026-04-25 21:45 43.76714 -94.95967 33747 ft 491 kts 269°
2026-04-25 21:45 43.76179 -95.05322 33744 ft 491 kts 269°
2026-04-25 21:46 43.75631 -95.14755 33741 ft 491 kts 269°
2026-04-25 21:46 43.75076 -95.24185 33745 ft 491 kts 269°
2026-04-25 21:47 43.74513 -95.33611 33750 ft 492 kts 269°
2026-04-25 21:47 43.73942 -95.43035 33750 ft 492 kts 269°
2026-04-25 21:48 43.73364 -95.52455 33750 ft 492 kts 269°
2026-04-25 21:48 43.72777 -95.61884 33748 ft 492 kts 268°
2026-04-25 21:49 43.72187 -95.71245 33747 ft 492 kts 268°
2026-04-25 21:49 43.71584 -95.80676 33747 ft 492 kts 268°
2026-04-25 21:50 43.70974 -95.90102 33751 ft 492 kts 268°
2026-04-25 21:50 43.70356 -95.99522 33748 ft 492 kts 268°
2026-04-25 21:51 43.69730 -96.08952 33752 ft 492 kts 268°
2026-04-25 21:51 43.69098 -96.18363 33748 ft 492 kts 268°
2026-04-25 21:52 43.68460 -96.27733 33742 ft 492 kts 268°
2026-04-25 21:52 43.67810 -96.37164 33747 ft 492 kts 268°
2026-04-25 21:53 43.67153 -96.46584 33750 ft 492 kts 268°
2026-04-25 21:53 43.66490 -96.55993 33749 ft 492 kts 268°
2026-04-25 21:54 43.65820 -96.65391 33751 ft 492 kts 268°
2026-04-25 21:54 43.64869 -96.74763 33736 ft 496 kts 256°
2026-04-25 21:54 43.63638 -96.79228 33749 ft 499 kts 245°
2026-04-25 21:55 43.61913 -96.83329 33746 ft 501 kts 234°
2026-04-25 21:55 43.57474 -96.90762 33752 ft 502 kts 230°
2026-04-25 21:56 43.52934 -96.98095 33751 ft 502 kts 230°
2026-04-25 21:56 43.48433 -97.05461 33749 ft 503 kts 231°
2026-04-25 21:57 43.43953 -97.12862 33749 ft 503 kts 231°
2026-04-25 21:57 43.39472 -97.20270 33748 ft 503 kts 231°
2026-04-25 21:58 43.34985 -97.27663 33746 ft 504 kts 231°
2026-04-25 21:58 43.30514 -97.35005 33744 ft 504 kts 231°
2026-04-25 21:59 43.26008 -97.42385 33741 ft 504 kts 231°
2026-04-25 21:59 43.21489 -97.49767 33750 ft 504 kts 231°
2026-04-25 22:00 43.14725 -97.60782 33751 ft 504 kts 231°
2026-04-25 22:00 43.10238 -97.68066 33746 ft 503 kts 231°
2026-04-25 22:01 43.05714 -97.75392 33750 ft 503 kts 231°
2026-04-25 22:01 43.01957 -97.81462 33748 ft 503 kts 230°
2026-04-25 22:02 42.96667 -97.89988 33741 ft 503 kts 230°
2026-04-25 22:02 42.92138 -97.97267 33750 ft 502 kts 230°
2026-04-25 22:03 42.87607 -98.04533 33749 ft 502 kts 230°
2026-04-25 22:03 42.83075 -98.11781 33747 ft 502 kts 230°
2026-04-25 22:04 42.78566 -98.18974 33751 ft 502 kts 230°
2026-04-25 22:04 42.74017 -98.26215 33753 ft 502 kts 230°
2026-04-25 22:05 42.69470 -98.33433 33747 ft 503 kts 230°
2026-04-25 22:05 42.64911 -98.40653 33748 ft 503 kts 230°
2026-04-25 22:06 42.60350 -98.47860 33745 ft 503 kts 230°
2026-04-25 22:06 42.55777 -98.55067 33741 ft 504 kts 230°
2026-04-25 22:07 42.51974 -98.61050 33747 ft 504 kts 230°
2026-04-25 22:07 42.46670 -98.69521 33740 ft 504 kts 235°
2026-04-25 22:08 42.42976 -98.77547 33750 ft 502 kts 241°
2026-04-25 22:08 42.39440 -98.85709 33747 ft 502 kts 241°
2026-04-25 22:09 42.35844 -98.93815 33742 ft 503 kts 240°
2026-04-25 22:09 42.32222 -99.01844 33747 ft 503 kts 240°
2026-04-25 22:10 42.28569 -99.09914 33743 ft 504 kts 240°
2026-04-25 22:10 42.24910 -99.17991 33747 ft 504 kts 240°
2026-04-25 22:11 42.21251 -99.26052 33753 ft 504 kts 240°
2026-04-25 22:11 42.17589 -99.34121 33748 ft 504 kts 240°
2026-04-25 22:12 42.13920 -99.42191 33752 ft 504 kts 240°
2026-04-25 22:12 42.10869 -99.48884 33745 ft 504 kts 240°
2026-04-25 22:13 42.06570 -99.58287 33745 ft 504 kts 240°
2026-04-25 22:13 42.02888 -99.66318 33751 ft 504 kts 240°
2026-04-25 22:14 41.99198 -99.74346 33813 ft 506 kts 240°
2026-04-25 22:14 41.97345 -99.78368 34027 ft 506 kts 240°
2026-04-25 22:14 41.95517 -99.82332 34300 ft 504 kts 239°
2026-04-25 22:15 41.93649 -99.86375 34598 ft 501 kts 239°
2026-04-25 22:15 41.91837 -99.90292 34844 ft 500 kts 239°
2026-04-25 22:15 41.89997 -99.94265 35023 ft 500 kts 239°
2026-04-25 22:16 41.86321 -100.02189 35319 ft 500 kts 239°
2026-04-25 22:16 41.84481 -100.06145 35510 ft 499 kts 239°
2026-04-25 22:16 41.82645 -100.10089 35698 ft 497 kts 239°
2026-04-25 22:17 41.78972 -100.17966 35741 ft 500 kts 239°
2026-04-25 22:17 41.75276 -100.25868 35747 ft 500 kts 239°
2026-04-25 22:18 41.71576 -100.33759 35750 ft 500 kts 239°
2026-04-25 22:18 41.67875 -100.41632 35748 ft 500 kts 239°
2026-04-25 22:19 41.64166 -100.49502 35747 ft 500 kts 239°
2026-04-25 22:19 41.60456 -100.57356 35748 ft 500 kts 239°
2026-04-25 22:20 41.56760 -100.65160 35749 ft 500 kts 239°
2026-04-25 22:20 41.53204 -100.73123 35737 ft 498 kts 248°
2026-04-25 22:21 41.51387 -100.80402 35754 ft 492 kts 259°
2026-04-25 22:21 41.49838 -100.89300 35748 ft 492 kts 260°
2026-04-25 22:22 41.48275 -100.98195 35746 ft 493 kts 259°
2026-04-25 22:22 41.46668 -101.07034 35750 ft 494 kts 259°
2026-04-25 22:23 41.45019 -101.15941 35748 ft 494 kts 259°
2026-04-25 22:23 41.43359 -101.24858 35748 ft 495 kts 259°
2026-04-25 22:24 41.41704 -101.33719 35748 ft 496 kts 259°
2026-04-25 22:24 41.40033 -101.42632 35750 ft 496 kts 259°
2026-04-25 22:25 41.38354 -101.51549 35746 ft 496 kts 259°
2026-04-25 22:25 41.36665 -101.60473 35749 ft 496 kts 259°
2026-04-25 22:26 41.34973 -101.69376 35747 ft 496 kts 258°
2026-04-25 22:26 41.33272 -101.78281 35748 ft 496 kts 258°
2026-04-25 22:27 41.31567 -101.87171 35748 ft 496 kts 258°
2026-04-25 22:27 41.29856 -101.96051 35747 ft 495 kts 258°
2026-04-25 22:28 41.28140 -102.04918 35751 ft 495 kts 258°
2026-04-25 22:28 41.26417 -102.13779 35743 ft 495 kts 258°
2026-04-25 22:29 41.24690 -102.22622 35748 ft 494 kts 258°
2026-04-25 22:29 41.22958 -102.31465 35748 ft 494 kts 258°
2026-04-25 22:30 41.20354 -102.44721 35749 ft 495 kts 258°
2026-04-25 22:30 41.18908 -102.52077 35746 ft 495 kts 258°
2026-04-25 22:31 41.16879 -102.62358 35749 ft 496 kts 258°
2026-04-25 22:31 41.15119 -102.71227 35748 ft 496 kts 258°
2026-04-25 22:32 41.13355 -102.80078 35751 ft 497 kts 258°
2026-04-25 22:32 41.11582 -102.88942 35744 ft 498 kts 258°
2026-04-25 22:33 41.09224 -102.97581 35753 ft 502 kts 243°
2026-04-25 22:33 41.05108 -103.05046 35751 ft 504 kts 227°
2026-04-25 22:34 41.00232 -103.11731 35749 ft 504 kts 226°
2026-04-25 22:34 40.95376 -103.18353 35746 ft 505 kts 226°
2026-04-25 22:35 40.90519 -103.25070 35748 ft 505 kts 227°
2026-04-25 22:35 40.85676 -103.31809 35748 ft 505 kts 227°
2026-04-25 22:36 40.80830 -103.38540 35747 ft 505 kts 227°
2026-04-25 22:36 40.75976 -103.45262 35746 ft 505 kts 227°
2026-04-25 22:37 40.71122 -103.51965 35744 ft 505 kts 227°
2026-04-25 22:37 40.66288 -103.58624 35750 ft 505 kts 227°
2026-04-25 22:38 40.61425 -103.65310 35746 ft 505 kts 227°
2026-04-25 22:38 40.56568 -103.71972 35750 ft 505 kts 226°
2026-04-25 22:39 40.51702 -103.78632 35748 ft 504 kts 226°
2026-04-25 22:39 40.46834 -103.85281 35748 ft 504 kts 226°
2026-04-25 22:40 40.41965 -103.91916 35750 ft 504 kts 226°
2026-04-25 22:40 40.37090 -103.98547 35748 ft 504 kts 226°
2026-04-25 22:41 40.32208 -104.05162 35749 ft 504 kts 226°
2026-04-25 22:41 40.27319 -104.11764 35748 ft 504 kts 226°
2026-04-25 22:42 40.22422 -104.18366 35751 ft 505 kts 226°
2026-04-25 22:42 40.17560 -104.24909 35747 ft 505 kts 226°
2026-04-25 22:43 40.12658 -104.31491 35749 ft 505 kts 226°
2026-04-25 22:43 40.07754 -104.38062 35749 ft 505 kts 226°
2026-04-25 22:44 40.02844 -104.44627 35747 ft 505 kts 226°
2026-04-25 22:44 39.97929 -104.51187 35751 ft 506 kts 226°
2026-04-25 22:45 39.93021 -104.57766 35743 ft 506 kts 230°
2026-04-25 22:45 39.89225 -104.65398 35752 ft 501 kts 248°
2026-04-25 22:46 39.87131 -104.73980 35765 ft 497 kts 259°
2026-04-25 22:46 39.85537 -104.82745 35752 ft 498 kts 259°
2026-04-25 22:47 39.83915 -104.91511 35746 ft 499 kts 259°
2026-04-25 22:47 39.82239 -105.00281 35749 ft 499 kts 259°
2026-04-25 22:48 39.80537 -105.09048 35747 ft 500 kts 258°
2026-04-25 22:48 39.78837 -105.17761 35749 ft 500 kts 258°
2026-04-25 22:49 39.77119 -105.26543 35744 ft 501 kts 258°
2026-04-25 22:49 39.75395 -105.35321 35740 ft 501 kts 258°
2026-04-25 22:50 39.73664 -105.44096 35746 ft 501 kts 258°
2026-04-25 22:50 39.71927 -105.52871 35742 ft 501 kts 257°
2026-04-25 22:51 39.70184 -105.61638 35739 ft 501 kts 256°
2026-04-25 22:51 39.68449 -105.70324 35721 ft 499 kts 256°
2026-04-25 22:52 39.66705 -105.79019 35737 ft 496 kts 254°
2026-04-25 22:52 39.65261 -105.86195 35756 ft 492 kts 253°
2026-04-25 22:53 39.63232 -105.96222 35746 ft 490 kts 253°
2026-04-25 22:53 39.61494 -106.04772 35742 ft 490 kts 256°
2026-04-25 22:54 39.59755 -106.13301 35752 ft 490 kts 254°
2026-04-25 22:54 39.58011 -106.21821 35756 ft 488 kts 253°
2026-04-25 22:55 39.56264 -106.30315 35754 ft 487 kts 253°
2026-04-25 22:55 39.54516 -106.38782 35739 ft 486 kts 254°
2026-04-25 22:56 39.52775 -106.47187 35747 ft 486 kts 253°
2026-04-25 22:56 39.51017 -106.55635 35729 ft 485 kts 254°
2026-04-25 22:57 39.49260 -106.64040 35736 ft 483 kts 253°
2026-04-25 22:57 39.47500 -106.72430 35731 ft 483 kts 255°
2026-04-25 22:58 39.45733 -106.80824 35743 ft 483 kts 254°
2026-04-25 22:58 39.43964 -106.89203 35751 ft 482 kts 252°
2026-04-25 22:59 39.42021 -106.97489 35746 ft 482 kts 252°
2026-04-25 22:59 39.39910 -107.05711 35752 ft 482 kts 253°
2026-04-25 23:00 39.37798 -107.13944 35754 ft 484 kts 254°
2026-04-25 23:00 39.35699 -107.22230 35763 ft 486 kts 255°
2026-04-25 23:01 39.33596 -107.30557 35741 ft 489 kts 253°
2026-04-25 23:01 39.31483 -107.38907 35751 ft 489 kts 251°
2026-04-25 23:02 39.29365 -107.47244 35750 ft 488 kts 252°
2026-04-25 23:02 39.27256 -107.55516 35767 ft 489 kts 253°
2026-04-25 23:03 39.25120 -107.63862 35756 ft 490 kts 252°
2026-04-25 23:03 39.22977 -107.72207 35755 ft 490 kts 253°
2026-04-25 23:04 39.21188 -107.79153 35744 ft 492 kts 253°
2026-04-25 23:04 39.18660 -107.88937 35758 ft 493 kts 254°
2026-04-25 23:05 39.16481 -107.97334 35750 ft 494 kts 254°
2026-04-25 23:05 39.14663 -108.04321 35751 ft 496 kts 254°
2026-04-25 23:06 39.12461 -108.12754 35745 ft 498 kts 254°
2026-04-25 23:06 39.10247 -108.21207 35744 ft 499 kts 253°
2026-04-25 23:07 39.08020 -108.29683 35749 ft 499 kts 254°
2026-04-25 23:07 39.05785 -108.38159 35748 ft 501 kts 253°
2026-04-25 23:08 39.03539 -108.46647 35754 ft 502 kts 253°
2026-04-25 23:08 39.01278 -108.55161 35745 ft 503 kts 253°
2026-04-25 23:09 38.99008 -108.63684 35744 ft 504 kts 253°
2026-04-25 23:09 38.96743 -108.72159 35744 ft 504 kts 253°
2026-04-25 23:10 38.94456 -108.80686 35751 ft 505 kts 253°
2026-04-25 23:10 38.92162 -108.89214 35749 ft 505 kts 253°
2026-04-25 23:11 38.89858 -108.97751 35744 ft 506 kts 253°
2026-04-25 23:11 38.87548 -109.06279 35748 ft 505 kts 253°
2026-04-25 23:12 38.85237 -109.14777 35746 ft 504 kts 253°
2026-04-25 23:12 38.82925 -109.23254 35751 ft 503 kts 253°
2026-04-25 23:13 38.80615 -109.31699 35749 ft 501 kts 253°
2026-04-25 23:13 38.78304 -109.40120 35738 ft 501 kts 253°
2026-04-25 23:14 38.75989 -109.48527 35747 ft 499 kts 253°
2026-04-25 23:14 38.73689 -109.56849 35743 ft 498 kts 253°
2026-04-25 23:15 38.71374 -109.65203 35745 ft 497 kts 253°
2026-04-25 23:15 38.69057 -109.73539 35754 ft 497 kts 253°
2026-04-25 23:16 38.66730 -109.81882 35746 ft 498 kts 253°
2026-04-25 23:16 38.64395 -109.90227 35746 ft 499 kts 253°
2026-04-25 23:17 38.62051 -109.98578 35753 ft 499 kts 252°
2026-04-25 23:17 38.59695 -110.06945 35755 ft 501 kts 252°
2026-04-25 23:18 38.57327 -110.15329 35759 ft 501 kts 252°
2026-04-25 23:18 38.54945 -110.23734 35748 ft 502 kts 252°
2026-04-25 23:19 38.52558 -110.32130 35748 ft 503 kts 252°
2026-04-25 23:19 38.50177 -110.40476 35748 ft 504 kts 252°
2026-04-25 23:20 38.47772 -110.48884 35746 ft 504 kts 252°
2026-04-25 23:20 38.45367 -110.57270 35749 ft 503 kts 252°
2026-04-25 23:21 38.42931 -110.65636 35746 ft 503 kts 248°
2026-04-25 23:21 38.39302 -110.73269 35748 ft 506 kts 230°
2026-04-25 23:22 38.34410 -110.79712 35749 ft 505 kts 225°
2026-04-25 23:23 38.26931 -110.89184 35745 ft 505 kts 225°
2026-04-25 23:23 38.22027 -110.95493 35750 ft 505 kts 226°
2026-04-25 23:24 38.17101 -111.01859 35739 ft 505 kts 226°
2026-04-25 23:24 38.12174 -111.08217 35754 ft 505 kts 226°
2026-04-25 23:25 38.07233 -111.14574 35745 ft 506 kts 226°
2026-04-25 23:25 38.02273 -111.20939 35748 ft 507 kts 226°
2026-04-25 23:26 37.97302 -111.27304 35754 ft 508 kts 226°
2026-04-25 23:26 37.92355 -111.33627 35755 ft 509 kts 226°
2026-04-25 23:27 37.87358 -111.40000 35752 ft 510 kts 226°
2026-04-25 23:27 37.82355 -111.46368 35745 ft 511 kts 225°
2026-04-25 23:28 37.77343 -111.52735 35750 ft 511 kts 225°
2026-04-25 23:28 37.72327 -111.59095 35747 ft 511 kts 225°
2026-04-25 23:29 37.67303 -111.65452 35741 ft 511 kts 225°
2026-04-25 23:29 37.62311 -111.71756 35746 ft 510 kts 225°
2026-04-25 23:30 37.57286 -111.78089 35745 ft 510 kts 225°
2026-04-25 23:30 37.52265 -111.84405 35749 ft 510 kts 225°
2026-04-25 23:31 37.47600 -111.91099 35757 ft 508 kts 235°
2026-04-25 23:31 37.43506 -111.98348 35746 ft 508 kts 236°
2026-04-25 23:32 37.39352 -112.05538 35750 ft 508 kts 234°
2026-04-25 23:32 37.35150 -112.12670 35740 ft 508 kts 234°
2026-04-25 23:33 37.30963 -112.19821 35744 ft 508 kts 234°
2026-04-25 23:33 37.26778 -112.26968 35751 ft 508 kts 234°
2026-04-25 23:34 37.22581 -112.34116 35749 ft 508 kts 234°
2026-04-25 23:34 37.18380 -112.41249 35750 ft 508 kts 234°
2026-04-25 23:35 37.14202 -112.48327 35746 ft 508 kts 234°
2026-04-25 23:35 37.09998 -112.55439 35750 ft 507 kts 234°
2026-04-25 23:36 37.05789 -112.62541 35744 ft 507 kts 234°
2026-04-25 23:36 37.01569 -112.69639 35745 ft 508 kts 234°
2026-04-25 23:37 36.97351 -112.76713 35753 ft 507 kts 234°
2026-04-25 23:37 36.93121 -112.83798 35742 ft 507 kts 234°
2026-04-25 23:38 36.88923 -112.90816 35752 ft 507 kts 234°
2026-04-25 23:38 36.84694 -112.97870 35748 ft 507 kts 234°
2026-04-25 23:39 36.80466 -113.04909 35746 ft 506 kts 234°
2026-04-25 23:39 36.76238 -113.11934 35747 ft 506 kts 234°
2026-04-25 23:40 36.72013 -113.18939 35749 ft 505 kts 234°
2026-04-25 23:40 36.67811 -113.25893 35742 ft 505 kts 234°
2026-04-25 23:41 36.63581 -113.32879 35752 ft 505 kts 234°
2026-04-25 23:41 36.59426 -113.39924 35745 ft 504 kts 236°
2026-04-25 23:42 36.55399 -113.47072 35750 ft 504 kts 236°
2026-04-25 23:42 36.51370 -113.54220 35748 ft 505 kts 236°
2026-04-25 23:43 36.47313 -113.61349 35749 ft 505 kts 236°
2026-04-25 23:43 36.43238 -113.68469 35751 ft 506 kts 236°
2026-04-25 23:44 36.39148 -113.75599 35742 ft 507 kts 236°
2026-04-25 23:44 36.35058 -113.82717 35742 ft 507 kts 236°
2026-04-25 23:45 36.30993 -113.89779 35752 ft 505 kts 236°
2026-04-25 23:45 36.26912 -113.96853 35742 ft 503 kts 236°
2026-04-25 23:46 36.22844 -114.03891 35746 ft 501 kts 236°
2026-04-25 23:46 36.18786 -114.10898 35733 ft 499 kts 236°
2026-04-25 23:47 36.14746 -114.17860 35743 ft 497 kts 235°
2026-04-25 23:47 36.10741 -114.24749 35757 ft 496 kts 235°
2026-04-25 23:48 36.06570 -114.31542 35747 ft 496 kts 230°
2026-04-25 23:48 36.01966 -114.37883 35753 ft 496 kts 228°
2026-04-25 23:49 35.97298 -114.44176 35746 ft 497 kts 228°
2026-04-25 23:49 35.92664 -114.50524 35754 ft 498 kts 229°
2026-04-25 23:50 35.88019 -114.56938 35754 ft 504 kts 229°
2026-04-25 23:50 35.83354 -114.63375 35762 ft 507 kts 229°
2026-04-25 23:51 35.78645 -114.69853 35747 ft 508 kts 229°
2026-04-25 23:51 35.73928 -114.76327 35748 ft 508 kts 229°
2026-04-25 23:52 35.69195 -114.82811 35744 ft 509 kts 229°
2026-04-25 23:52 35.64452 -114.89302 35745 ft 510 kts 229°
2026-04-25 23:53 35.59716 -114.95796 35757 ft 510 kts 229°
2026-04-25 23:53 35.55005 -115.02251 35744 ft 511 kts 229°
2026-04-25 23:54 35.50246 -115.08751 35751 ft 512 kts 228°
2026-04-25 23:54 35.45387 -115.15149 35743 ft 513 kts 227°
2026-04-25 23:55 35.40476 -115.21498 35752 ft 513 kts 227°
2026-04-25 23:55 35.36400 -115.26778 35748 ft 513 kts 227°
2026-04-25 23:56 35.31513 -115.33128 35747 ft 512 kts 227°
2026-04-25 23:56 35.26622 -115.39477 35746 ft 512 kts 227°
2026-04-25 23:57 35.21748 -115.45793 35732 ft 508 kts 227°
2026-04-25 23:57 35.16919 -115.52037 35742 ft 502 kts 227°
2026-04-25 23:58 35.12139 -115.58206 35745 ft 498 kts 227°
2026-04-25 23:58 35.07375 -115.64308 35748 ft 495 kts 227°
2026-04-25 23:59 35.02626 -115.70367 35735 ft 490 kts 227°
2026-04-25 23:59 34.97978 -115.76292 35744 ft 483 kts 227°
2026-04-26 00:00 34.93348 -115.82190 35745 ft 479 kts 227°
2026-04-26 00:00 34.88753 -115.88031 35744 ft 476 kts 227°
2026-04-26 00:01 34.84199 -115.93812 35756 ft 478 kts 227°
2026-04-26 00:01 34.81882 -115.96750 35808 ft 467 kts 227°
2026-04-26 00:01 34.79728 -115.99475 35721 ft 431 kts 228°
2026-04-26 00:01 34.77733 -116.01995 35706 ft 399 kts 227°
2026-04-26 00:02 34.75874 -116.04352 35687 ft 373 kts 227°
2026-04-26 00:02 34.74141 -116.06558 35698 ft 349 kts 228°
2026-04-26 00:02 34.72506 -116.08640 35703 ft 335 kts 228°
2026-04-26 00:03 34.69279 -116.12758 35726 ft 340 kts 228°
2026-04-26 00:03 34.66002 -116.16933 35729 ft 347 kts 228°
2026-04-26 00:04 34.62640 -116.21206 35720 ft 351 kts 228°
2026-04-26 00:04 34.59265 -116.25486 35711 ft 350 kts 228°
2026-04-26 00:05 34.55904 -116.29743 35728 ft 349 kts 227°
2026-04-26 00:05 34.52572 -116.33959 35716 ft 348 kts 227°
2026-04-26 00:05 34.50894 -116.36082 35544 ft 351 kts 227°
2026-04-26 00:06 34.49186 -116.38241 35055 ft 356 kts 227°
2026-04-26 00:06 34.47464 -116.40416 34416 ft 357 kts 227°
2026-04-26 00:06 34.45745 -116.42586 33759 ft 358 kts 227°
2026-04-26 00:06 34.44019 -116.44761 33031 ft 358 kts 227°
2026-04-26 00:07 34.42306 -116.46951 32329 ft 358 kts 229°
2026-04-26 00:07 34.40872 -116.49425 31451 ft 364 kts 240°
2026-04-26 00:07 34.39749 -116.52196 30745 ft 367 kts 242°
2026-04-26 00:07 34.38637 -116.54998 30002 ft 370 kts 242°
2026-04-26 00:08 34.37511 -116.57805 29148 ft 372 kts 241°
2026-04-26 00:08 34.36366 -116.60621 28377 ft 373 kts 241°
2026-04-26 00:08 34.35239 -116.63367 28295 ft 358 kts 241°
2026-04-26 00:08 34.34142 -116.66026 28115 ft 346 kts 241°
2026-04-26 00:09 34.33079 -116.68605 27732 ft 341 kts 241°
2026-04-26 00:09 34.32037 -116.71175 26818 ft 349 kts 241°
2026-04-26 00:09 34.30974 -116.73821 26266 ft 347 kts 242°
2026-04-26 00:09 34.29920 -116.76449 25729 ft 346 kts 242°
2026-04-26 00:10 34.28875 -116.79057 25242 ft 343 kts 242°
2026-04-26 00:10 34.27837 -116.81641 24784 ft 340 kts 242°
2026-04-26 00:10 34.26805 -116.84204 24328 ft 338 kts 242°
2026-04-26 00:10 34.25779 -116.86749 23860 ft 336 kts 242°
2026-04-26 00:11 34.24760 -116.89274 23463 ft 334 kts 242°
2026-04-26 00:11 34.23742 -116.91794 22931 ft 332 kts 241°
2026-04-26 00:11 34.22729 -116.94300 22429 ft 330 kts 242°
2026-04-26 00:11 34.21727 -116.96775 21994 ft 326 kts 241°
2026-04-26 00:12 34.20775 -116.99265 21504 ft 327 kts 245°
2026-04-26 00:12 34.20027 -117.01879 20957 ft 328 kts 249°
2026-04-26 00:12 34.19368 -117.04502 20498 ft 325 kts 249°
2026-04-26 00:12 34.18709 -117.07109 20060 ft 324 kts 250°
2026-04-26 00:13 34.18030 -117.09696 19621 ft 323 kts 249°
2026-04-26 00:13 34.17338 -117.12269 19202 ft 322 kts 248°
2026-04-26 00:13 34.16641 -117.14835 18776 ft 321 kts 248°
2026-04-26 00:13 34.15949 -117.17366 18265 ft 323 kts 248°
2026-04-26 00:14 34.15241 -117.19944 17815 ft 324 kts 248°
2026-04-26 00:14 34.14529 -117.22529 17347 ft 322 kts 248°
2026-04-26 00:14 34.13823 -117.25087 16930 ft 319 kts 248°
2026-04-26 00:14 34.13127 -117.27614 16505 ft 316 kts 248°
2026-04-26 00:15 34.12438 -117.30114 16079 ft 313 kts 248°
2026-04-26 00:15 34.11753 -117.32596 15686 ft 310 kts 248°
2026-04-26 00:15 34.11074 -117.35056 15268 ft 309 kts 248°
2026-04-26 00:15 34.10399 -117.37511 14865 ft 309 kts 249°
2026-04-26 00:16 34.09767 -117.39994 14446 ft 308 kts 250°
2026-04-26 00:16 34.09165 -117.42436 14034 ft 306 kts 250°
2026-04-26 00:16 34.08558 -117.44889 13628 ft 304 kts 250°
2026-04-26 00:16 34.07953 -117.47316 13391 ft 296 kts 250°
2026-04-26 00:17 34.07368 -117.49651 13231 ft 287 kts 250°
2026-04-26 00:17 34.06671 -117.51907 12762 ft 286 kts 244°
2026-04-26 00:17 34.05865 -117.54096 12392 ft 285 kts 244°
2026-04-26 00:17 34.05049 -117.56272 12014 ft 285 kts 244°
2026-04-26 00:18 34.04240 -117.58457 11627 ft 285 kts 244°
2026-04-26 00:18 34.03441 -117.60645 11245 ft 285 kts 244°
2026-04-26 00:18 34.02648 -117.62835 10865 ft 284 kts 245°
2026-04-26 00:18 34.01859 -117.65019 10505 ft 284 kts 245°
2026-04-26 00:19 34.01083 -117.67170 10363 ft 275 kts 245°
2026-04-26 00:19 34.00514 -117.69340 10194 ft 270 kts 259°
2026-04-26 00:19 34.00325 -117.71554 10079 ft 261 kts 261°
2026-04-26 00:19 34.00140 -117.73692 9928 ft 253 kts 261°
2026-04-26 00:20 33.99948 -117.75804 9596 ft 253 kts 260°
2026-04-26 00:20 33.99749 -117.77901 9319 ft 249 kts 261°
2026-04-26 00:20 33.99550 -117.79956 9016 ft 247 kts 261°
2026-04-26 00:20 33.99349 -117.82003 8719 ft 245 kts 261°
2026-04-26 00:21 33.99151 -117.84037 8419 ft 245 kts 261°
2026-04-26 00:21 33.98953 -117.86076 8116 ft 244 kts 261°
2026-04-26 00:21 33.98756 -117.88101 7820 ft 243 kts 261°
2026-04-26 00:21 33.98559 -117.90122 7506 ft 242 kts 261°
2026-04-26 00:22 33.98361 -117.92133 7212 ft 241 kts 261°
2026-04-26 00:22 33.98164 -117.94131 6920 ft 240 kts 261°
2026-04-26 00:22 33.97969 -117.96119 6652 ft 238 kts 261°
2026-04-26 00:22 33.97773 -117.98099 6406 ft 237 kts 261°
2026-04-26 00:23 33.97578 -118.00075 6079 ft 237 kts 261°
2026-04-26 00:23 33.97384 -118.02026 5740 ft 233 kts 262°
2026-04-26 00:23 33.97194 -118.03938 5455 ft 226 kts 262°
2026-04-26 00:23 33.97011 -118.05787 5188 ft 218 kts 262°
2026-04-26 00:24 33.96835 -118.07570 4929 ft 211 kts 261°
2026-04-26 00:24 33.96660 -118.09314 4628 ft 208 kts 261°
2026-04-26 00:24 33.96492 -118.11010 4377 ft 200 kts 262°
2026-04-26 00:24 33.96329 -118.12652 4103 ft 194 kts 261°
2026-04-26 00:25 33.96171 -118.14238 3855 ft 187 kts 261°
2026-04-26 00:25 33.96018 -118.15760 3600 ft 180 kts 261°
2026-04-26 00:25 33.95870 -118.17231 3432 ft 176 kts 262°
2026-04-26 00:25 33.95724 -118.18682 3198 ft 173 kts 261°
2026-04-26 00:26 33.95580 -118.20115 2965 ft 172 kts 262°
2026-04-26 00:26 33.95433 -118.21566 2744 ft 176 kts 262°
2026-04-26 00:26 33.95301 -118.23011 2588 ft 171 kts 261°
2026-04-26 00:26 33.95157 -118.24452 2350 ft 172 kts 261°
2026-04-26 00:27 33.95010 -118.25881 2126 ft 171 kts 261°
2026-04-26 00:27 33.94865 -118.27282 1895 ft 167 kts 261°
2026-04-26 00:27 33.94722 -118.28661 1687 ft 162 kts 262°
2026-04-26 00:27 33.94586 -118.29980 1444 ft 150 kts 262°
2026-04-26 00:28 33.94466 -118.31149 1288 ft 141 kts 260°
2026-04-26 00:28 33.94344 -118.32329 1082 ft 144 kts 261°
2026-04-26 00:28 33.94223 -118.33511 899 ft 139 kts 262°
2026-04-26 00:28 33.94104 -118.34664 716 ft 140 kts 263°
2026-04-26 00:29 33.93977 -118.35815 528 ft 139 kts 264°
2026-04-26 00:29 33.93871 -118.36944 313 ft 131 kts 262°
2026-04-26 00:29 33.93763 -118.38020 161 ft 129 kts 262°
2026-04-26 00:29 33.93658 -118.39098 92 ft 126 kts 261°
2026-04-26 00:30 33.93559 -118.40001 95 ft 87 kts 263°
2026-04-26 00:30 33.93510 -118.40497 96 ft 35 kts 262°
2026-04-26 00:30 33.93483 -118.40767 92 ft 30 kts 263°
2026-04-26 00:30 33.93489 -118.41010 94 ft 28 kts 281°
2026-04-26 00:31 33.93535 -118.41177 95 ft 14 kts 281°
2026-04-26 00:31 33.93557 -118.41242 95 ft 7 kts 313°
2026-04-26 00:31 33.93559 -118.41244 95 ft 0 kts 317°
2026-04-26 00:32 33.93560 -118.41244 95 ft 1 kts 326°
2026-04-26 00:32 33.93594 -118.41256 95 ft 11 kts 345°
2026-04-26 00:32 33.93718 -118.41274 96 ft 1 kts
2026-04-26 00:33 33.93722 -118.41274 96 ft 1 kts
2026-04-26 00:33 33.93744 -118.41265 95 ft 7 kts 38°
2026-04-26 00:33 33.93761 -118.41173 93 ft 15 kts 83°
2026-04-26 00:33 33.93774 -118.41030 93 ft 19 kts 83°
2026-04-26 00:34 33.93789 -118.40869 93 ft 19 kts 83°
2026-04-26 00:34 33.93806 -118.40710 94 ft 19 kts 83°
2026-04-26 00:34 33.93822 -118.40556 93 ft 18 kts 83°
2026-04-26 00:34 33.93837 -118.40408 94 ft 18 kts 83°
2026-04-26 00:35 33.93851 -118.40264 95 ft 17 kts 83°
2026-04-26 00:35 33.93866 -118.40117 97 ft 18 kts 82°
2026-04-26 00:35 33.93884 -118.39958 96 ft 19 kts 83°
2026-04-26 00:35 33.93902 -118.39832 96 ft 13 kts 59°
2026-04-26 00:36 33.93984 -118.39820 92 ft 13 kts 351°
2026-04-26 00:36 33.94070 -118.39825 92 ft 13 kts
2026-04-26 00:36 33.94138 -118.39838 92 ft 7 kts 324°
2026-04-26 00:36 33.94153 -118.39891 95 ft 5 kts 283°
2026-04-26 00:37 33.94154 -118.39893 95 ft 0 kts 283°